Weather History for Clinton-Sherman, OK

Change the Weather History Date:

Tuesday, November 26, 2013

  Actual Average Record
Temperature  
Mean Temperature 37 °F -  
Max Temperature 46 °F 54 °F 72 °F (2005)
Min Temperature 27 °F 34 °F 21 °F (1996)
Degree Days  
Heating Degree Days 28    
Moisture  
Dew Point 24 °F    
Average Humidity 67    
Maximum Humidity 85    
Minimum Humidity 39    
Precipitation  
Precipitation 0.00 in - - ()
Sea Level Pressure  
Sea Level Pressure 30.35 in    
Wind  
Wind Speed 13 mph (North)    
Max Wind Speed 24 mph    
Max Gust Speed 33 mph    
Visibility 10 miles    
Events      
Averages and records for this station are not official NWS values.
T = Trace of Precipitation, MM = Missing Value Source: NWS Daily Summary

Daily Weather History Graph

Daily Weather History Graph

Search for Another Location

Airport:

Trip Planner

Search our weather history database for the weather conditions in past years. The results will help you decide how hot, cold, wet, or windy it might be!

Date:

Astronomy

Nov. 26, 2013 Rise Set
Actual Time 7:22 AM CST 5:25 PM CST
Civil Twilight 6:55 AM CST 5:52 PM CST
Nautical Twilight 6:24 AM CST 6:24 PM CST
Astronomical Twilight 5:53 AM CST 6:54 PM CST
Moon 12:41 AM CST (11/26) 1:20 PM CST (11/26)
Length of Visible Light 10h 57m
Length of Day
10h 02m
Last Quarter, 41% of the Moon is Illuminated
Nov 26
Last Quarter
Dec 2
New
Dec 9
First Quarter
Dec 17
Full
Dec 25
Last Quarter

Hourly Weather History & Observations

Time (CST) Temp. Windchill Dew Point Humidity Pressure Visibility Wind Dir Wind Speed Gust Speed Precip Events Conditions
12:53 AM 30.9 °F 21.7 °F 26.1 °F 82% 30.27 in 10.0 mi NNW 11.5 mph - N/A   Clear
1:53 AM 30.0 °F 20.5 °F 26.1 °F 85% 30.26 in 10.0 mi NNW 11.5 mph - N/A   Clear
2:53 AM 28.9 °F 18.6 °F 25.0 °F 85% 30.26 in 10.0 mi North 12.7 mph - N/A   Clear
3:53 AM 30.0 °F 20.0 °F 26.1 °F 85% 30.25 in 10.0 mi North 12.7 mph - N/A   Clear
4:53 AM 30.0 °F 20.5 °F 25.0 °F 82% 30.27 in 10.0 mi North 11.5 mph - N/A   Clear
5:53 AM 30.0 °F 19.5 °F 24.1 °F 79% 30.29 in 10.0 mi NNW 13.8 mph - N/A   Clear
6:53 AM 28.9 °F 18.6 °F 24.1 °F 82% 30.31 in 10.0 mi NNW 12.7 mph - N/A   Clear
7:53 AM 30.0 °F 20.5 °F 24.1 °F 79% 30.32 in 10.0 mi NNW 11.5 mph - N/A   Clear
8:53 AM 33.1 °F 23.0 °F 25.0 °F 72% 30.35 in 10.0 mi NNW 15.0 mph - N/A   Clear
9:53 AM 35.1 °F 24.8 °F 25.0 °F 67% 30.36 in 10.0 mi North 17.3 mph - N/A   Clear
10:53 AM 37.0 °F 27.4 °F 27.0 °F 67% 30.37 in 10.0 mi North 17.3 mph - N/A   Clear
11:53 AM 42.1 °F 32.8 °F 28.0 °F 58% 30.35 in 10.0 mi North 21.9 mph - N/A   Clear
12:53 PM 44.1 °F 36.2 °F 27.0 °F 51% 30.34 in 10.0 mi North 18.4 mph 27.6 mph N/A   Clear
1:53 PM 46.0 °F 38.3 °F 24.1 °F 42% 30.34 in 10.0 mi North 20.7 mph 33.4 mph N/A   Clear
2:53 PM 46.9 °F - 24.1 °F 41% 30.33 in 10.0 mi NNW 24.2 mph 32.2 mph N/A   Clear
3:53 PM 46.9 °F - 23.0 °F 39% 30.34 in 10.0 mi North 18.4 mph 29.9 mph N/A   Clear
4:53 PM 44.1 °F 36.5 °F 23.0 °F 43% 30.36 in 10.0 mi North 17.3 mph - N/A   Clear
5:53 PM 39.0 °F 32.3 °F 24.1 °F 55% 30.38 in 10.0 mi NNW 10.4 mph - N/A   Clear
6:53 PM 37.9 °F 29.2 °F 23.0 °F 55% 30.41 in 10.0 mi North 15.0 mph - N/A   Clear
7:53 PM 35.1 °F 25.9 °F 24.1 °F 64% 30.44 in 10.0 mi North 13.8 mph - N/A   Clear
8:53 PM 30.9 °F 25.2 °F 23.0 °F 72% 30.46 in 10.0 mi North 5.8 mph - N/A   Clear
9:53 PM 28.0 °F 20.8 °F 21.9 °F 78% 30.46 in 10.0 mi North 6.9 mph - N/A   Clear
10:53 PM 28.0 °F 20.8 °F 21.0 °F 75% 30.47 in 10.0 mi North 6.9 mph - N/A   Clear
11:53 PM 27.0 °F 20.5 °F 21.0 °F 78% 30.48 in 10.0 mi NNW 5.8 mph - N/A   Clear